GW3531 Weather Reports


time (UTC)temp
C
wind
direction
speed
KPH
gust
KPH
rain 1hr
cm
rain 24hr
cm
rain mn
cm
humidity
%
barometer
mb
20260506143055 20 225 12.9 27.4 0.00 0.00 0.00 65 1009.5
20260506141555 20 152 14.5 27.4 0.00 0.00 0.00 66 1009.4
20260506134556 18 169 17.7 33.8 0.00 0.00 0.00 68 1009.7
20260506133052 18 179 20.9 37.0 0.00 0.00 0.00 68 1009.8
20260506131556 18 191 20.9 35.4 0.00 0.00 0.00 69 1009.9
20260506130058 18 181 20.9 32.2 0.00 0.00 0.00 69 1009.7
20260506124601 18 172 20.9 33.8 0.00 0.00 0.00 70 1009.7
20260506123057 18 188 16.1 29.0 0.00 0.00 0.00 71 1009.7
20260506121556 18 180 17.7 33.8 0.00 0.00 0.00 72 1009.9
20260506120058 17 141 14.5 27.4 0.00 0.00 0.00 72 1010.1
20260506114559 17 153 19.3 30.6 0.00 0.00 0.00 74 1010.1
20260506113058 17 173 14.5 29.0 0.00 0.00 0.00 75 1010.2
20260506111555 17 168 19.3 33.8 0.00 0.00 0.00 74 1010.2
20260506110055 17 155 17.7 29.0 0.00 0.00 0.00 75 1010.1
20260506104558 17 183 14.5 27.4 0.00 0.00 0.00 76 1010.2
20260506103104 17 181 16.1 29.0 0.00 0.00 0.00 75 1010.1
20260506101559 17 172 19.3 30.6 0.00 0.00 0.00 74 1009.9
20260506100100 17 156 19.3 29.0 0.00 0.00 0.00 74 1009.9
20260506094603 17 168 17.7 33.8 0.00 0.00 0.00 74 1009.8
20260506093103 17 162 19.3 33.8 0.00 0.00 0.00 74 1009.9
20260506091602 17 165 22.5 33.8 0.00 0.00 0.00 74 1009.9
20260506084607 18 162 22.5 37.0 0.00 0.00 0.00 73 1010.1
20260506083058 18 168 19.3 35.4 0.00 0.00 0.00 73 1010.0
20260506081554 18 197 20.9 41.8 0.00 0.00 0.00 73 1010.2
20260506080106 18 175 20.9 38.6 0.00 0.00 0.00 72 1010.2
20260506073058 18 179 22.5 33.8 0.00 0.00 0.00 70 1010.2
20260506071604 18 168 19.3 33.8 0.00 0.00 0.00 69 1010.3
20260506061553 19 175 19.3 27.4 0.00 0.00 0.00 67 1010.3
20260506050104 19 178 17.7 27.4 0.00 0.00 0.00 65 1011.1
20260506044555 19 177 17.7 30.6 0.00 0.00 0.00 64 1011.0
20260506043054 19 181 17.7 35.4 0.00 0.00 0.00 64 1011.0
20260506041556 20 187 19.3 32.2 0.00 0.00 0.00 63 1011.0
20260506040056 20 176 17.7 30.6 0.00 0.00 0.00 62 1010.9
20260506034613 19 160 19.3 30.6 0.00 0.00 0.00 62 1010.9
20260506033054 20 193 22.5 33.8 0.00 0.00 0.00 61 1010.9
20260506031556 20 160 20.9 40.2 0.00 0.00 0.00 61 1010.7
20260506030053 20 159 20.9 38.6 0.00 0.00 0.00 59 1010.6
20260506024616 20 163 19.3 38.6 0.00 0.00 0.00 59 1010.7
20260506023056 20 183 22.5 37.0 0.00 0.00 0.00 58 1010.7
20260506021557 20 197 22.5 38.6 0.00 0.00 0.00 59 1010.6
20260506020053 21 170 27.4 41.8 0.00 0.00 0.00 57 1010.6
20260506014556 21 163 22.5 35.4 0.00 0.00 0.00 56 1010.4
20260506013108 21 193 16.1 38.6 0.00 0.00 0.00 56 1010.1
20260506011605 20 204 19.3 37.0 0.00 0.00 0.00 58 1009.9
20260506010058 22 170 29.0 57.9 0.00 0.00 0.00 52 1009.8
20260506004554 22 165 14.5 24.1 0.00 0.00 0.00 50 1009.7
20260506003053 23 157 14.5 29.0 0.00 0.00 0.00 47 1009.4
20260506001555 23 181 19.3 29.0 0.00 0.00 0.00 43 1009.3
20260506000055 23 183 14.5 30.6 0.00 0.00 0.00 44 1009.2
20260505234552 23 175 17.7 29.0 0.00 0.00 0.00 43 1009.0
20260505233102 25 190 17.7 32.2 0.00 0.00 0.00 39 1008.9
20260505231552 25 139 22.5 41.8 0.00 0.00 0.00 36 1008.4
20260505230104 26 210 27.4 46.7 0.00 0.00 0.00 31 1008.3
20260505224554 25 186 25.7 46.7 0.00 0.00 0.00 31 1008.1
20260505223108 26 214 16.1 41.8 0.00 0.00 0.00 32 1008.2
20260505221559 26 192 19.3 33.8 0.00 0.00 0.00 36 1008.1
20260505220108 26 185 22.5 51.5 0.00 0.00 0.00 35 1007.8
20260505214553 26 212 20.9 45.1 0.00 0.00 0.00 35 1007.7
20260505213100 26 207 22.5 57.9 0.00 0.00 0.00 35 1007.6
20260505211553 26 204 27.4 43.5 0.00 0.00 0.00 34 1007.7
20260505210054 26 189 25.7 43.5 0.00 0.00 0.00 32 1007.5
20260505204601 26 181 24.1 48.3 0.00 0.00 0.00 33 1007.6
20260505203108 26 191 29.0 48.3 0.00 0.00 0.00 34 1007.6
20260505201552 25 171 19.3 43.5 0.00 0.00 0.00 35 1007.6
20260505200054 25 143 22.5 33.8 0.00 0.00 0.00 37 1007.7
20260505194605 25 178 19.3 35.4 0.00 0.00 0.00 40 1008.0
20260505193056 23 214 12.9 29.0 0.00 0.00 0.00 47 1008.3
20260505191558 25 144 12.9 27.4 0.00 0.00 0.00 42 1008.5
20260505190053 25 167 19.3 33.8 0.00 0.00 0.00 41 1008.8
20260505184555 25 195 20.9 43.5 0.00 0.00 0.00 40 1009.1
20260505183101 25 199 16.1 40.2 0.00 0.00 0.00 42 1009.2
20260505181555 24 206 17.7 32.2 0.00 0.00 0.00 45 1009.2
20260505180056 25 187 16.1 33.8 0.00 0.00 0.00 42 1009.2
20260505174558 25 195 17.7 27.4 0.00 0.00 0.00 43 1009.3
20260505173056 24 218 19.3 32.2 0.00 0.00 0.00 44 1009.6
20260505171555 22 175 14.5 24.1 0.00 0.00 0.00 51 1009.8
20260505170057 23 185 14.5 27.4 0.00 0.00 0.00 47 1009.9
20260505164601 21 191 11.3 19.3 0.00 0.00 0.00 52 1010.2
20260505163100 21 194 14.5 22.5 0.00 0.00 0.00 54 1010.3
20260505161553 21 183 11.3 22.5 0.00 0.00 0.00 56 1010.4
20260505153115 21 182 11.3 22.5 0.00 0.00 0.00 52 1010.9
20260505151600 21 176 12.9 22.5 0.00 0.00 0.00 55 1011.1